Location: Archemont
(49.1579°N, 1.7598°E)
Time: 14:50:24
(UTC+00:00)

A-11 Canister half - Pass Details

Date: 23 April 2024
Orbit: 1525 x 1683 km, 47.3° (Epoch: 21 May)

Event Time Altitude Azimuth Distance (km) Brightness Sun altitude
Exits shadow 03:27:38 - 194° (SSW) 4,648 11.1 -12.0°
Reaches altitude 10° 03:30:44 10° 184° (S) 3,863 10.7 -11.6°
Maximum altitude 03:38:25 26° 132° (SE) 2,825 10.6 -10.6°
Drops below altitude 10° 03:46:12 10° 81° (E) 3,943 12.4 -9.5°
Sets 03:50:02 0° 70° (ENE) 4,941 13.6 -9.0°
